Terug naar catalogus

EXPRESS 3A

ActiefCommunicatieGEO
NORAD 26378·PAYLOAD·🇷🇺 Russia

Gelanceerd Jun 24, 2000 vanaf Baikonur Cosmodrome

Loading…

TLE

VersSource: Space-Track

Epoch: Sep 14, 2026, 05:50 UTC

1 26378U 00031A   26257.24318417 -.00000206  00000-0  00000-0 0  9991
2 26378  12.4450  31.5217 0010057 200.8733 331.9074  0.98768671 95103

Volg EXPRESS 3A in realtime met AllMySat

Download on the App Store